Location: Newark
(43.0000°N, 1.6781°W)
Time: 08:15:06
(UTC+00:00)

AO-7 - Pass Details

Date: 13 December 2022
Orbit: 1440 x 1459 km, 101.9° (Epoch: 28 January)

Event Time Altitude Azimuth Distance (km) Brightness Sun altitude
Rises 17:16:37 0° 204° (SSW) 4,523 ? -8.0°
Reaches altitude 10° 17:20:10 10° 218° (SW) 3,548 ? -8.6°
Maximum altitude 17:26:21 23° 267° (W) 2,674 ? -9.6°
Drops below altitude 10° 17:32:37 10° 317° (NW) 3,560 ? -10.7°
Sets 17:36:14 0° 331° (NNW) 4,542 ? -11.3°
